This demonstration page uses our WeatherBlox Daily Observations layout. Learn more.

41.55636, -103.73856

Hourly Observations for September 22, 2020

Temp ( °F °C ) Dew Point ( °F °C ) Humidity (%) Winds ( mph kmh ) Pressure ( in mb ) Visibility ( mi km ) Precip ( " mm )
12:58 am 00:58 Clear 64 18 44 6.5 47 47 S 7 11 29.96 1015 10 16.0934 0 0
1:58 am 01:58 Clear 60 15.8 43 6.1 53 53 Calm 29.99 1016 10 16.0934 0 0
2:58 am 02:58 Clear 60 15.6 45 7.2 58 58 W 8 13 29.99 1015 10 16.0934 0 0
3:58 am 03:58 Clear 57 13.8 44 6.4 61 61 WSW 7 11 30.01 1016 10 16.0934 0 0
4:58 am 04:58 Clear 53 11.9 43 6 67 67 WSW 7 11 30.01 1016 10 16.0934 0 0
5:58 am 05:58 Clear 54 12 43 5.9 67 67 WSW 7 11 30.03 1017 10 16.0934 0 0
6:58 am 06:58 Sunny 52 11 42 5.6 70 70 WSW 3 6 30.05 1018 10 16.0934 0 0
7:58 am 07:58 Sunny 54 12 43 5.9 67 67 WNW 3 6 30.07 1018 10 16.0934 0 0
8:58 am 08:58 Sunny 60 15.8 45 7.3 57 57 Calm 30.06 1018 10 16.0934 0 0
9:58 am 09:58 Sunny 71 21.4 42 5.4 35 35 Calm 30.03 1017 10 16.0934 0 0
10:58 am 10:58 Sunny 83 28.3 36 2.4 19 19 S 10 17 29.98 1015 10 16.0934 0 0
11:58 am 11:58 Sunny 86 30.2 31 -0.7 13 13 SSW 18 30 29.96 1014 10 16.0934 0 0
12:58 pm 12:58 Sunny 87 30.5 33 0.4 14 14 S 16 26 29.93 1014 10 16.0934 0 0
1:58 pm 13:58 Sunny 88 30.9 30 -1.3 12 12 SW 13 20 29.91 1013 10 16.0934 0 0
2:58 pm 14:58 Partly Cloudy 88 31.3 30 -1.1 12 12 S 9 15 29.89 1012 10 16.0934 0 0
3:58 pm 15:58 Sunny 86 30.2 30 -1.1 13 13 N 10 17 29.89 1012 10 16.0934 0 0
4:58 pm 16:58 Partly Cloudy 85 29.6 31 -0.7 14 14 S 7 11 29.9 1013 10 16.0934 0 0
5:58 pm 17:58 Sunny 82 27.5 30 -1.2 15 15 S 23 37 29.91 1013 10 16.0934 0 0
6:58 pm 18:58 Mostly Cloudy 73 22.7 33 0.8 24 24 SW 8 13 29.94 1014 10 16.0934 0 0
7:58 pm 19:58 Mostly Cloudy 68 20.2 34 0.9 28 28 SSW 14 22 29.96 1014 10 16.0934 0 0
8:58 pm 20:58 Mostly Cloudy 71 21.5 33 0.8 25 25 SSW 16 26 29.94 1014 10 16.0934 0 0
9:58 pm 21:58 Clear 69 20.4 36 2 30 30 SSW 17 28 29.93 1014 10 16.0934 0 0
10:58 pm 22:58 Clear 64 17.9 36 2.2 35 35 SW 9 15 29.93 1014 10 16.0934 0 0
11:58 pm 23:58 Clear 67 19.4 35 1.5 30 30 W 14 22 29.93 1014 10 16.0934 0 0

Powered by AerisWeather